Weather History for Las Vegas, NM

Change the Weather History Date:

Thursday, February 14, 2013

  Actual Average Record
Temperature  
Mean Temperature 32 °F -  
Max Temperature 45 °F 49 °F 72 °F (1981)
Min Temperature 19 °F 24 °F 2 °F (1966)
Degree Days  
Heating Degree Days 33    
Moisture  
Dew Point 14 °F    
Average Humidity 55    
Maximum Humidity 93    
Minimum Humidity 27    
Precipitation  
Precipitation 0.00 in - - ()
Sea Level Pressure  
Sea Level Pressure 30.06 in    
Wind  
Wind Speed 8 mph (NE)    
Max Wind Speed 21 mph    
Max Gust Speed 16 mph    
Visibility 9 miles    
Events Snow    
Averages and records for this station are not official NWS values.
T = Trace of Precipitation, MM = Missing Value Source: NWS Daily Summary

Daily Weather History Graph

Daily Weather History Graph

Search for Another Location

Airport:

Trip Planner

Search our weather history database for the weather conditions in past years. The results will help you decide how hot, cold, wet, or windy it might be!

Date:

Astronomy

Feb. 14, 2013 Rise Set
Actual Time 6:48 AM MST 5:41 PM MST
Civil Twilight 6:21 AM MST 6:07 PM MST
Nautical Twilight 5:52 AM MST 6:37 PM MST
Astronomical Twilight 5:22 AM MST 7:07 PM MST
Moon 9:03 AM MST (2/14) 10:34 PM MST (2/14)
Length of Visible Light 11h 45m
Length of Day
10h 53m
Waxing Crescent, 22% of the Moon is Illuminated
Feb 14
Waxing Crescent
Feb 17
First Quarter
Feb 25
Full
Mar 4
Last Quarter
Mar 11
New

Hourly Weather History & Observations

Time (MST) Temp. Windchill Dew Point Humidity Pressure Visibility Wind Dir Wind Speed Gust Speed Precip Events Conditions
12:53 AM 21.9 °F 14.5 °F 8.1 °F 55% 29.97 in 10.0 mi NNE 5.8 mph - N/A   Clear
1:53 AM 25.0 °F 19.3 °F 7.0 °F 46% 29.95 in 10.0 mi NNE 4.6 mph - N/A   Clear
2:53 AM 24.1 °F 16.0 °F 8.1 °F 51% 29.94 in 10.0 mi NNW 6.9 mph - N/A   Clear
3:53 AM 23.0 °F 14.7 °F 7.0 °F 50% 29.92 in 10.0 mi NNE 6.9 mph - N/A   Clear
4:53 AM 24.1 °F 17.0 °F 7.0 °F 48% 29.94 in 10.0 mi NNW 5.8 mph - N/A   Clear
5:53 AM 19.9 °F 13.4 °F 6.1 °F 55% 29.99 in 10.0 mi NE 4.6 mph - N/A   Clear
6:53 AM 19.0 °F 10.0 °F 6.1 °F 57% 30.04 in 10.0 mi NE 6.9 mph - N/A   Clear
7:53 AM 25.0 °F 17.1 °F 8.1 °F 49% 30.04 in 10.0 mi NNE 6.9 mph - N/A   Clear
8:53 AM 30.0 °F 22.4 °F 10.0 °F 43% 30.07 in 10.0 mi NNE 8.1 mph - N/A   Clear
9:53 AM 34.0 °F 26.0 °F 12.0 °F 40% 30.04 in 10.0 mi East 10.4 mph - N/A   Clear
10:53 AM 39.0 °F 34.0 °F 15.1 °F 38% 30.00 in 10.0 mi ESE 6.9 mph - N/A   Clear
11:53 AM 41.0 °F 39.0 °F 14.0 °F 33% 29.96 in 10.0 mi Variable 3.5 mph - N/A   Clear
12:53 PM 44.1 °F 40.1 °F 12.9 °F 28% 29.96 in 10.0 mi South 6.9 mph 16.1 mph N/A   Clear
1:53 PM 44.1 °F 40.1 °F 12.0 °F 27% 29.93 in 10.0 mi Variable 6.9 mph - N/A   Clear
2:53 PM 45.0 °F 40.6 °F 12.9 °F 27% 29.95 in 10.0 mi ESE 8.1 mph - N/A   Clear
3:53 PM 44.1 °F 40.1 °F 14.0 °F 30% 29.98 in 10.0 mi ESE 6.9 mph - N/A   Scattered Clouds
4:53 PM 41.0 °F 34.3 °F 14.0 °F 33% 30.01 in 10.0 mi East 11.5 mph - N/A   Scattered Clouds
5:53 PM 37.0 °F 29.8 °F 15.1 °F 41% 30.08 in 10.0 mi ENE 10.4 mph - N/A   Overcast
6:53 PM 30.0 °F 23.2 °F 12.9 °F 49% 30.16 in 10.0 mi ENE 6.9 mph - N/A   Clear
7:53 PM 32.0 °F 20.8 °F 21.9 °F 66% 30.16 in 9.0 mi ENE 17.3 mph - 0.00 in   Mostly Cloudy
8:53 PM 28.9 °F 15.8 °F 21.9 °F 75% 30.19 in 9.0 mi NE 20.7 mph - 0.00 in Snow Light Snow
9:25 PM 26.6 °F 14.3 °F 21.2 °F 80% 30.21 in 7.0 mi NNE 16.1 mph - 0.00 in Snow Light Snow
9:53 PM 27.0 °F 15.2 °F 24.1 °F 89% 30.20 in 3.0 mi NE 15.0 mph - 0.00 in Snow Light Snow
10:00 PM 26.6 °F 14.7 °F 24.8 °F 93% 30.22 in 2.5 mi NE 15.0 mph - 0.00 in Snow Light Snow
10:22 PM 26.6 °F 15.2 °F 23.0 °F 86% 30.23 in 5.0 mi NE 13.8 mph - 0.00 in Snow Light Snow
10:53 PM 25.0 °F 15.5 °F 21.9 °F 88% 30.21 in 9.0 mi NNE 9.2 mph - 0.00 in Snow Light Snow
11:05 PM 24.8 °F 14.0 °F 21.2 °F 86% 30.23 in 9.0 mi NE 11.5 mph - 0.00 in   Overcast
11:53 PM 24.1 °F 16.0 °F 21.9 °F 91% 30.22 in 10.0 mi ENE 6.9 mph - 0.00 in   Overcast